owner,sensor,date,latitude,longitude,air_pressure(mBar),qcFlag 
TABS,ioos:station:wmo:42046:1,2002-10-01T00:09:00Z,27.8903,-94.0367,1015.36,11111222 
TABS,ioos:station:wmo:42046:1,2002-10-01T00:39:00Z,27.8903,-94.0367,1015.36,11111222 
TABS,ioos:station:wmo:42046:1,2002-10-01T02:09:00Z,27.8903,-94.0367,1016.31,11111222 
TABS,ioos:station:wmo:42046:1,2002-10-01T03:09:00Z,27.8903,-94.0367,1016.76,11111222 
TABS,ioos:station:wmo:42046:1,2002-10-01T04:39:00Z,27.8903,-94.0367,1016.63,11111222 
TABS,ioos:station:wmo:42046:1,2002-10-01T05:09:00Z,27.8903,-94.0367,1016.5,11111222 
TABS,ioos:station:wmo:42046:1,2002-10-01T08:09:00Z,27.8903,-94.0367,1015.61,11111222 
TABS,ioos:station:wmo:42046:1,2002-10-01T09:39:00Z,27.8903,-94.0367,1015.36,11111222 
TABS,ioos:station:wmo:42046:1,2002-10-01T11:39:00Z,27.8903,-94.0367,1015.87,11111222 
TABS,ioos:station:wmo:42046:1,2002-10-01T19:09:00Z,27.8903,-94.0367,1016.06,11111222 
TABS,ioos:station:wmo:42046:1,2002-10-01T20:39:00Z,27.8903,-94.0367,1015.3,11111222 
TABS,ioos:station:wmo:42046:1,2002-10-01T21:09:00Z,27.8903,-94.0367,1015.11,11111222 
TABS,ioos:station:wmo:42046:1,2002-10-01T22:09:00Z,27.8903,-94.0367,1014.66,11111222 
TABS,ioos:station:wmo:42046:1,2002-10-02T00:09:00Z,27.8903,-94.0367,1014.72,11111222 
TABS,ioos:station:wmo:42046:1,2002-10-02T01:09:00Z,27.8903,-94.0367,1015.04,11111222 
TABS,ioos:station:wmo:42046:1,2002-10-02T01:39:00Z,27.8903,-94.0367,1015.42,11111222 
TABS,ioos:station:wmo:42046:1,2002-10-02T02:09:00Z,27.8903,-94.0367,1015.68,11111222 
TABS,ioos:station:wmo:42046:1,2002-10-02T02:39:00Z,27.8903,-94.0367,1015.61,11111222 
TABS,ioos:station:wmo:42046:1,2002-10-02T03:39:00Z,27.8903,-94.0367,1015.68,11111222 
TABS,ioos:station:wmo:42046:1,2002-10-02T05:09:00Z,27.8903,-94.0367,1014.85,11111222 
TABS,ioos:station:wmo:42046:1,2002-10-02T06:09:00Z,27.8903,-94.0367,1014.22,11111222 
TABS,ioos:station:wmo:42046:1,2002-10-02T08:39:00Z,27.8903,-94.0367,1013.07,11111222 
TABS,ioos:station:wmo:42046:1,2002-10-02T09:39:00Z,27.8903,-94.0367,1012.95,11111222 
TABS,ioos:station:wmo:42046:1,2002-10-02T10:09:00Z,27.8903,-94.0367,1013.07,11111222 
TABS,ioos:station:wmo:42046:1,2002-10-02T11:09:00Z,27.8903,-94.0367,1013.33,11111222 
TABS,ioos:station:wmo:42046:1,2002-10-02T12:39:00Z,27.8903,-94.0367,1013.58,11111222 
TABS,ioos:station:wmo:42046:1,2002-10-02T13:09:00Z,27.8903,-94.0367,1013.65,11111222 
TABS,ioos:station:wmo:42046:1,2002-10-02T13:39:00Z,27.8903,-94.0367,1013.77,11111222 
TABS,ioos:station:wmo:42046:1,2002-10-02T14:09:00Z,27.8903,-94.0367,1013.96,11111222 
TABS,ioos:station:wmo:42046:1,2002-10-02T14:39:00Z,27.8903,-94.0367,1014.28,11111222 
TABS,ioos:station:wmo:42046:1,2002-10-02T18:09:00Z,27.8903,-94.0367,1012.95,11111222 
TABS,ioos:station:wmo:42046:1,2002-10-03T00:09:00Z,27.8903,-94.0367,1009.84,11111222 
TABS,ioos:station:wmo:42046:1,2002-10-03T03:09:00Z,27.8903,-94.0367,1009.27,11111222 
TABS,ioos:station:wmo:42046:1,2002-10-03T04:09:00Z,27.8903,-94.0367,1009.01,11111222 
TABS,ioos:station:wmo:42046:1,2002-10-03T08:39:00Z,27.8903,-94.0367,1005.46,11111222 
TABS,ioos:station:wmo:42046:1,2002-10-03T09:09:00Z,27.8903,-94.0367,1005.27,11111222 
TABS,ioos:station:wmo:42046:1,2002-10-03T09:39:00Z,27.8903,-94.0367,1005.46,11111222 
TABS,ioos:station:wmo:42046:1,2002-10-03T11:09:00Z,27.8903,-94.0367,1005.77,11111222 
TABS,ioos:station:wmo:42046:1,2002-10-03T15:09:00Z,27.8903,-94.0367,1008.12,11111222 
TABS,ioos:station:wmo:42046:1,2002-10-03T15:39:00Z,27.8903,-94.0367,1008.12,11111222 
TABS,ioos:station:wmo:42046:1,2002-10-03T18:39:00Z,27.8903,-94.0367,1008.19,11111222 
TABS,ioos:station:wmo:42046:1,2002-10-03T20:39:00Z,27.8903,-94.0367,1007.74,11111222 
TABS,ioos:station:wmo:42046:1,2002-10-03T23:39:00Z,27.8903,-94.0367,1008.38,11111222 
TABS,ioos:station:wmo:42046:1,2002-10-04T00:39:00Z,27.8903,-94.0367,1008.57,11111222 
TABS,ioos:station:wmo:42046:1,2002-10-04T02:09:00Z,27.8903,-94.0367,1009.65,11111222 
TABS,ioos:station:wmo:42046:1,2002-10-04T02:39:00Z,27.8903,-94.0367,1010.15,11111222 
TABS,ioos:station:wmo:42046:1,2002-10-04T03:09:00Z,27.8903,-94.0367,1010.41,11111222 
TABS,ioos:station:wmo:42046:1,2002-10-04T06:39:00Z,27.8903,-94.0367,1011.42,11111222 
TABS,ioos:station:wmo:42046:1,2002-10-04T07:09:00Z,27.8903,-94.0367,1011.36,11111222 
TABS,ioos:station:wmo:42046:1,2002-10-04T08:39:00Z,27.8903,-94.0367,1010.92,11111222 
TABS,ioos:station:wmo:42046:1,2002-10-04T09:39:00Z,27.8903,-94.0367,1010.92,11111222 
TABS,ioos:station:wmo:42046:1,2002-10-04T10:09:00Z,27.8903,-94.0367,1011.23,11111222 
TABS,ioos:station:wmo:42046:1,2002-10-04T15:09:00Z,27.8903,-94.0367,1014.66,11111222 
TABS,ioos:station:wmo:42046:1,2002-10-04T17:39:00Z,27.8903,-94.0367,1015.17,11111222 
TABS,ioos:station:wmo:42046:1,2002-10-04T20:39:00Z,27.8903,-94.0367,1014.03,11111222 
TABS,ioos:station:wmo:42046:1,2002-10-04T23:09:00Z,27.8903,-94.0367,1014.28,11111222 
TABS,ioos:station:wmo:42046:1,2002-10-05T00:39:00Z,27.8903,-94.0367,1014.34,11111222 
TABS,ioos:station:wmo:42046:1,2002-10-05T02:09:00Z,27.8903,-94.0367,1015.11,11111222 
TABS,ioos:station:wmo:42046:1,2002-10-05T02:39:00Z,27.8903,-94.0367,1015.49,11111222 
TABS,ioos:station:wmo:42046:1,2002-10-05T03:39:00Z,27.8903,-94.0367,1016.06,11111222 
TABS,ioos:station:wmo:42046:1,2002-10-05T04:39:00Z,27.8903,-94.0367,1016.18,11111222 
TABS,ioos:station:wmo:42046:1,2002-10-05T05:39:00Z,27.8903,-94.0367,1016.12,11111222 
TABS,ioos:station:wmo:42046:1,2002-10-05T06:39:00Z,27.8903,-94.0367,1016.57,11111222 
TABS,ioos:station:wmo:42046:1,2002-10-05T07:09:00Z,27.8903,-94.0367,1016.31,11111222 
TABS,ioos:station:wmo:42046:1,2002-10-05T08:09:00Z,27.8903,-94.0367,1016.06,11111222 
TABS,ioos:station:wmo:42046:1,2002-10-05T08:39:00Z,27.8903,-94.0367,1016.06,11111222 
TABS,ioos:station:wmo:42046:1,2002-10-05T09:09:00Z,27.8903,-94.0367,1015.99,11111222 
TABS,ioos:station:wmo:42046:1,2002-10-05T13:09:00Z,27.8903,-94.0367,1017.96,11111222 
TABS,ioos:station:wmo:42046:1,2002-10-05T13:39:00Z,27.8903,-94.0367,1018.34,11111222 
TABS,ioos:station:wmo:42046:1,2002-10-05T14:09:00Z,27.8903,-94.0367,1018.79,11111222 
TABS,ioos:station:wmo:42046:1,2002-10-05T14:39:00Z,27.8903,-94.0367,1019.17,11111222 
TABS,ioos:station:wmo:42046:1,2002-10-05T15:09:00Z,27.8903,-94.0367,1018.98,11111222 
TABS,ioos:station:wmo:42046:1,2002-10-05T16:39:00Z,27.8903,-94.0367,1019.74,11111222 
TABS,ioos:station:wmo:42046:1,2002-10-05T18:39:00Z,27.8903,-94.0367,1018.66,11111222 
TABS,ioos:station:wmo:42046:1,2002-10-05T21:09:00Z,27.8903,-94.0367,1018.22,11111222 
TABS,ioos:station:wmo:42046:1,2002-10-05T21:39:00Z,27.8903,-94.0367,1018.41,11111222 
TABS,ioos:station:wmo:42046:1,2002-10-05T22:39:00Z,27.8903,-94.0367,1018.28,11111222 
TABS,ioos:station:wmo:42046:1,2002-10-05T23:39:00Z,27.8903,-94.0367,1018.41,11111222 
TABS,ioos:station:wmo:42046:1,2002-10-06T00:09:00Z,27.8903,-94.0367,1018.6,11111222 
TABS,ioos:station:wmo:42046:1,2002-10-06T03:09:00Z,27.8903,-94.0367,1019.17,11111222 
TABS,ioos:station:wmo:42046:1,2002-10-06T03:39:00Z,27.8903,-94.0367,1019.17,11111222 
TABS,ioos:station:wmo:42046:1,2002-10-06T04:09:00Z,27.8903,-94.0367,1019.23,11111222 
TABS,ioos:station:wmo:42046:1,2002-10-06T07:09:00Z,27.8903,-94.0367,1018.72,11111222 
TABS,ioos:station:wmo:42046:1,2002-10-06T07:39:00Z,27.8903,-94.0367,1018.47,11111222 
TABS,ioos:station:wmo:42046:1,2002-10-06T09:09:00Z,27.8903,-94.0367,1018.03,11111222 
TABS,ioos:station:wmo:42046:1,2002-10-06T09:39:00Z,27.8903,-94.0367,1018.22,11111222 
TABS,ioos:station:wmo:42046:1,2002-10-06T10:09:00Z,27.8903,-94.0367,1018.28,11111222 
TABS,ioos:station:wmo:42046:1,2002-10-06T12:09:00Z,27.8903,-94.0367,1018.6,11111222 
TABS,ioos:station:wmo:42046:1,2002-10-06T22:09:00Z,27.8903,-94.0367,1017.45,11111222 
TABS,ioos:station:wmo:42046:1,2002-10-06T23:39:00Z,27.8903,-94.0367,1017.2,11111222 
TABS,ioos:station:wmo:42046:1,2002-10-07T00:09:00Z,27.8903,-94.0367,1017.33,11111222 
TABS,ioos:station:wmo:42046:1,2002-10-07T02:09:00Z,27.8903,-94.0367,1018.47,11111222 
TABS,ioos:station:wmo:42046:1,2002-10-07T02:39:00Z,27.8903,-94.0367,1018.66,11111222 
TABS,ioos:station:wmo:42046:1,2002-10-07T03:09:00Z,27.8903,-94.0367,1018.85,11111222 
TABS,ioos:station:wmo:42046:1,2002-10-07T03:39:00Z,27.8903,-94.0367,1018.98,11111222 
TABS,ioos:station:wmo:42046:1,2002-10-07T04:09:00Z,27.8903,-94.0367,1019.04,11111222 
TABS,ioos:station:wmo:42046:1,2002-10-07T05:39:00Z,27.8903,-94.0367,1018.72,11111222 
TABS,ioos:station:wmo:42046:1,2002-10-07T09:09:00Z,27.8903,-94.0367,1017.52,11111222 
TABS,ioos:station:wmo:42046:1,2002-10-07T10:39:00Z,27.8903,-94.0367,1017.2,11111222 
TABS,ioos:station:wmo:42046:1,2002-10-07T11:09:00Z,27.8903,-94.0367,1017.39,11111222 
TABS,ioos:station:wmo:42046:1,2002-10-07T11:39:00Z,27.8903,-94.0367,1017.45,11111222 
TABS,ioos:station:wmo:42046:1,2002-10-07T12:39:00Z,27.8903,-94.0367,1017.83,11111222 
TABS,ioos:station:wmo:42046:1,2002-10-07T13:09:00Z,27.8903,-94.0367,1018.03,11111222 
TABS,ioos:station:wmo:42046:1,2002-10-07T16:09:00Z,27.8903,-94.0367,1018.66,11111222 
TABS,ioos:station:wmo:42046:1,2002-10-07T16:39:00Z,27.8903,-94.0367,1018.6,11111222 
TABS,ioos:station:wmo:42046:1,2002-10-07T17:09:00Z,27.8903,-94.0367,1018.41,11111222 
TABS,ioos:station:wmo:42046:1,2002-10-07T18:09:00Z,27.8903,-94.0367,1017.77,11111222 
TABS,ioos:station:wmo:42046:1,2002-10-07T18:39:00Z,27.8903,-94.0367,1017.26,11111222 
TABS,ioos:station:wmo:42046:1,2002-10-07T19:09:00Z,27.8903,-94.0367,1017.07,11111222 
TABS,ioos:station:wmo:42046:1,2002-10-07T19:39:00Z,27.8903,-94.0367,1016.88,11111222 
TABS,ioos:station:wmo:42046:1,2002-10-07T22:39:00Z,27.8903,-94.0367,1015.17,11111222 
TABS,ioos:station:wmo:42046:1,2002-10-07T23:09:00Z,27.8903,-94.0367,1015.17,11111222 
TABS,ioos:station:wmo:42046:1,2002-10-07T23:39:00Z,27.8903,-94.0367,1015.3,11111222 
TABS,ioos:station:wmo:42046:1,2002-10-08T00:39:00Z,27.8903,-94.0367,1015.42,11111222 
TABS,ioos:station:wmo:42046:1,2002-10-08T02:39:00Z,27.8903,-94.0367,1016.25,11111222 
TABS,ioos:station:wmo:42046:1,2002-10-08T04:09:00Z,27.8903,-94.0367,1016.44,11111222 
TABS,ioos:station:wmo:42046:1,2002-10-08T05:09:00Z,27.8903,-94.0367,1016.25,11111222 
TABS,ioos:station:wmo:42046:1,2002-10-08T07:09:00Z,27.8903,-94.0367,1015.74,11111222 
TABS,ioos:station:wmo:42046:1,2002-10-08T11:39:00Z,27.8903,-94.0367,1015.17,11111222 
TABS,ioos:station:wmo:42046:1,2002-10-08T12:39:00Z,27.8903,-94.0367,1015.42,11111222 
TABS,ioos:station:wmo:42046:1,2002-10-08T13:09:00Z,27.8903,-94.0367,1015.49,11111222 
TABS,ioos:station:wmo:42046:1,2002-10-08T17:39:00Z,27.8903,-94.0367,1015.55,11111222 
TABS,ioos:station:wmo:42046:1,2002-10-08T18:39:00Z,27.8903,-94.0367,1014.72,11111222 
TABS,ioos:station:wmo:42046:1,2002-10-08T19:39:00Z,27.8903,-94.0367,1014.22,11111222 
TABS,ioos:station:wmo:42046:1,2002-10-08T20:09:00Z,27.8903,-94.0367,1013.9,11111222 
TABS,ioos:station:wmo:42046:1,2002-10-08T20:39:00Z,27.8903,-94.0367,1013.71,11111222 
TABS,ioos:station:wmo:42046:1,2002-10-08T22:09:00Z,27.8903,-94.0367,1013.33,11111222 
TABS,ioos:station:wmo:42046:1,2002-10-08T22:39:00Z,27.8903,-94.0367,1013.33,11111222 
TABS,ioos:station:wmo:42046:1,2002-10-09T00:39:00Z,27.8903,-94.0367,1013.33,11111222 
TABS,ioos:station:wmo:42046:1,2002-10-09T01:39:00Z,27.8903,-94.0367,1013.84,11111222 
TABS,ioos:station:wmo:42046:1,2002-10-09T02:09:00Z,27.8903,-94.0367,1013.96,11111222 
TABS,ioos:station:wmo:42046:1,2002-10-09T02:39:00Z,27.8903,-94.0367,1014.15,11111222 
TABS,ioos:station:wmo:42046:1,2002-10-09T09:39:00Z,27.8903,-94.0367,1013.07,11111222 
TABS,ioos:station:wmo:42046:1,2002-10-09T10:09:00Z,27.8903,-94.0367,1012.95,11111222 
TABS,ioos:station:wmo:42046:1,2002-10-09T12:39:00Z,27.8903,-94.0367,1013.65,11111222 
TABS,ioos:station:wmo:42046:1,2002-10-09T14:09:00Z,27.8903,-94.0367,1014.47,11111222 
TABS,ioos:station:wmo:42046:1,2002-10-09T15:09:00Z,27.8903,-94.0367,1014.72,11111222 
TABS,ioos:station:wmo:42046:1,2002-10-09T15:39:00Z,27.8903,-94.0367,1014.85,11111222 
TABS,ioos:station:wmo:42046:1,2002-10-09T17:09:00Z,27.8903,-94.0367,1014.66,11111222 
TABS,ioos:station:wmo:42046:1,2002-10-09T20:09:00Z,27.8903,-94.0367,1013.96,11111222 
TABS,ioos:station:wmo:42046:1,2002-10-09T21:39:00Z,27.8903,-94.0367,1014.22,11111222 
TABS,ioos:station:wmo:42046:1,2002-10-09T22:09:00Z,27.8903,-94.0367,1014.72,11111222 
TABS,ioos:station:wmo:42046:1,2002-10-09T23:09:00Z,27.8903,-94.0367,1014.15,11111222 
TABS,ioos:station:wmo:42046:1,2002-10-09T23:39:00Z,27.8903,-94.0367,1013.9,11111222 
TABS,ioos:station:wmo:42046:1,2002-10-10T02:39:00Z,27.8903,-94.0367,1013.77,11111222 
TABS,ioos:station:wmo:42046:1,2002-10-10T03:39:00Z,27.8903,-94.0367,1013.71,11111222 
TABS,ioos:station:wmo:42046:1,2002-10-10T04:09:00Z,27.8903,-94.0367,1013.96,11111222 
TABS,ioos:station:wmo:42046:1,2002-10-10T05:09:00Z,27.8903,-94.0367,1014.28,11111222 
TABS,ioos:station:wmo:42046:1,2002-10-10T05:39:00Z,27.8903,-94.0367,1013.84,11111222 
TABS,ioos:station:wmo:42046:1,2002-10-10T06:39:00Z,27.8903,-94.0367,1013.65,11111222 
TABS,ioos:station:wmo:42046:1,2002-10-10T07:09:00Z,27.8903,-94.0367,1013.58,11111222 
TABS,ioos:station:wmo:42046:1,2002-10-10T08:09:00Z,27.8903,-94.0367,1013.77,11111222 
TABS,ioos:station:wmo:42046:1,2002-10-10T08:39:00Z,27.8903,-94.0367,1013.84,11111222 
TABS,ioos:station:wmo:42046:1,2002-10-10T09:39:00Z,27.8903,-94.0367,1014.09,11111222 
TABS,ioos:station:wmo:42046:1,2002-10-10T10:09:00Z,27.8903,-94.0367,1014.34,11111222 
TABS,ioos:station:wmo:42046:1,2002-10-10T10:39:00Z,27.8903,-94.0367,1014.47,11111222 
TABS,ioos:station:wmo:42046:1,2002-10-10T11:09:00Z,27.8903,-94.0367,1014.47,11111222 
TABS,ioos:station:wmo:42046:1,2002-10-10T11:39:00Z,27.8903,-94.0367,1014.6,11111222 
TABS,ioos:station:wmo:42046:1,2002-10-10T13:09:00Z,27.8903,-94.0367,1015.23,11111222 
TABS,ioos:station:wmo:42046:1,2002-10-10T15:09:00Z,27.8903,-94.0367,1016.37,11111222 
TABS,ioos:station:wmo:42046:1,2002-10-10T16:39:00Z,27.8903,-94.0367,1016.5,11111222 
TABS,ioos:station:wmo:42046:1,2002-10-10T17:09:00Z,27.8903,-94.0367,1016.5,11111222 
TABS,ioos:station:wmo:42046:1,2002-10-10T17:39:00Z,27.8903,-94.0367,1016.37,11111222 
TABS,ioos:station:wmo:42046:1,2002-10-10T18:39:00Z,27.8903,-94.0367,1015.99,11111222 
TABS,ioos:station:wmo:42046:1,2002-10-10T21:09:00Z,27.8903,-94.0367,1015.42,11111222 
TABS,ioos:station:wmo:42046:1,2002-10-10T23:09:00Z,27.8903,-94.0367,1015.42,11111222 
TABS,ioos:station:wmo:42046:1,2002-10-11T00:09:00Z,27.8903,-94.0367,1015.68,11111222 
TABS,ioos:station:wmo:42046:1,2002-10-11T00:39:00Z,27.8903,-94.0367,1015.74,11111222 
TABS,ioos:station:wmo:42046:1,2002-10-11T01:09:00Z,27.8903,-94.0367,1015.99,11111222 
TABS,ioos:station:wmo:42046:1,2002-10-11T02:39:00Z,27.8903,-94.0367,1017.07,11111222 
TABS,ioos:station:wmo:42046:1,2002-10-11T03:09:00Z,27.8903,-94.0367,1017.2,11111222 
TABS,ioos:station:wmo:42046:1,2002-10-11T05:09:00Z,27.8903,-94.0367,1017.26,11111222 
TABS,ioos:station:wmo:42046:1,2002-10-11T05:39:00Z,27.8903,-94.0367,1017.14,11111222 
TABS,ioos:station:wmo:42046:1,2002-10-11T06:09:00Z,27.8903,-94.0367,1017.01,11111222 
TABS,ioos:station:wmo:42046:1,2002-10-11T07:09:00Z,27.8903,-94.0367,1017.26,11111222 
TABS,ioos:station:wmo:42046:1,2002-10-11T07:39:00Z,27.8903,-94.0367,1017.07,11111222 
TABS,ioos:station:wmo:42046:1,2002-10-11T08:39:00Z,27.8903,-94.0367,1016.69,11111222 
TABS,ioos:station:wmo:42046:1,2002-10-11T09:09:00Z,27.8903,-94.0367,1016.76,11111222 
TABS,ioos:station:wmo:42046:1,2002-10-11T12:09:00Z,27.8903,-94.0367,1017.83,11111222 
TABS,ioos:station:wmo:42046:1,2002-10-11T12:39:00Z,27.8903,-94.0367,1018.03,11111222 
TABS,ioos:station:wmo:42046:1,2002-10-11T13:39:00Z,27.8903,-94.0367,1018.6,11111222 
TABS,ioos:station:wmo:42046:1,2002-10-11T14:09:00Z,27.8903,-94.0367,1018.98,11111222 
TABS,ioos:station:wmo:42046:1,2002-10-11T15:09:00Z,27.8903,-94.0367,1019.29,11111222 
TABS,ioos:station:wmo:42046:1,2002-10-11T15:39:00Z,27.8903,-94.0367,1019.42,11111222 
TABS,ioos:station:wmo:42046:1,2002-10-11T16:09:00Z,27.8903,-94.0367,1019.55,11111222 
TABS,ioos:station:wmo:42046:1,2002-10-11T17:09:00Z,27.8903,-94.0367,1019.23,11111222 
TABS,ioos:station:wmo:42046:1,2002-10-11T17:39:00Z,27.8903,-94.0367,1018.98,11111222 
TABS,ioos:station:wmo:42046:1,2002-10-11T18:09:00Z,27.8903,-94.0367,1018.6,11111222 
TABS,ioos:station:wmo:42046:1,2002-10-11T19:09:00Z,27.8903,-94.0367,1018.22,11111222 
TABS,ioos:station:wmo:42046:1,2002-10-11T19:39:00Z,27.8903,-94.0367,1017.83,11111222 
TABS,ioos:station:wmo:42046:1,2002-10-11T20:39:00Z,27.8903,-94.0367,1017.52,11111222 
TABS,ioos:station:wmo:42046:1,2002-10-12T00:39:00Z,27.8903,-94.0367,1017.83,11111222 
TABS,ioos:station:wmo:42046:1,2002-10-12T05:09:00Z,27.8903,-94.0367,1018.41,11111222 
TABS,ioos:station:wmo:42046:1,2002-10-12T06:39:00Z,27.8903,-94.0367,1018.15,11111222 
TABS,ioos:station:wmo:42046:1,2002-10-12T07:39:00Z,27.8903,-94.0367,1017.83,11111222 
TABS,ioos:station:wmo:42046:1,2002-10-12T08:09:00Z,27.8903,-94.0367,1017.64,11111222 
TABS,ioos:station:wmo:42046:1,2002-10-12T08:39:00Z,27.8903,-94.0367,1017.52,11111222 
TABS,ioos:station:wmo:42046:1,2002-10-12T09:39:00Z,27.8903,-94.0367,1017.9,11111222 
TABS,ioos:station:wmo:42046:1,2002-10-12T12:09:00Z,27.8903,-94.0367,1018.85,11111222 
TABS,ioos:station:wmo:42046:1,2002-10-12T12:39:00Z,27.8903,-94.0367,1018.98,11111222 
TABS,ioos:station:wmo:42046:1,2002-10-12T13:09:00Z,27.8903,-94.0367,1019.42,11111222 
TABS,ioos:station:wmo:42046:1,2002-10-12T14:09:00Z,27.8903,-94.0367,1020.06,11111222 
TABS,ioos:station:wmo:42046:1,2002-10-12T15:09:00Z,27.8903,-94.0367,1020.31,11111222 
TABS,ioos:station:wmo:42046:1,2002-10-12T16:39:00Z,27.8903,-94.0367,1020.63,11111222 
TABS,ioos:station:wmo:42046:1,2002-10-12T17:39:00Z,27.8903,-94.0367,1020.12,11111222 
TABS,ioos:station:wmo:42046:1,2002-10-12T18:39:00Z,27.8903,-94.0367,1019.42,11111222 
TABS,ioos:station:wmo:42046:1,2002-10-12T19:09:00Z,27.8903,-94.0367,1019.1,11111222 
TABS,ioos:station:wmo:42046:1,2002-10-12T19:39:00Z,27.8903,-94.0367,1018.85,11111222 
TABS,ioos:station:wmo:42046:1,2002-10-12T20:09:00Z,27.8903,-94.0367,1018.6,11111222 
TABS,ioos:station:wmo:42046:1,2002-10-12T20:39:00Z,27.8903,-94.0367,1018.47,11111222 
TABS,ioos:station:wmo:42046:1,2002-10-12T23:39:00Z,27.8903,-94.0367,1018.85,11111222 
TABS,ioos:station:wmo:42046:1,2002-10-13T00:09:00Z,27.8903,-94.0367,1019.23,11111222 
TABS,ioos:station:wmo:42046:1,2002-10-13T01:09:00Z,27.8903,-94.0367,1019.61,11111222 
TABS,ioos:station:wmo:42046:1,2002-10-13T01:39:00Z,27.8903,-94.0367,1019.8,11111222 
TABS,ioos:station:wmo:42046:1,2002-10-13T02:09:00Z,27.8903,-94.0367,1019.99,11111222 
TABS,ioos:station:wmo:42046:1,2002-10-13T02:39:00Z,27.8903,-94.0367,1020.12,11111222 
TABS,ioos:station:wmo:42046:1,2002-10-13T04:39:00Z,27.8903,-94.0367,1020.06,11111222 
TABS,ioos:station:wmo:42046:1,2002-10-13T05:39:00Z,27.8903,-94.0367,1020.18,11111222 
TABS,ioos:station:wmo:42046:1,2002-10-13T07:09:00Z,27.8903,-94.0367,1020.5,11111222 
TABS,ioos:station:wmo:42046:1,2002-10-13T08:09:00Z,27.8903,-94.0367,1020.37,11111222 
TABS,ioos:station:wmo:42046:1,2002-10-13T09:09:00Z,27.8903,-94.0367,1020.5,11111222 
TABS,ioos:station:wmo:42046:1,2002-10-13T10:39:00Z,27.8903,-94.0367,1020.75,11111222 
TABS,ioos:station:wmo:42046:1,2002-10-13T13:09:00Z,27.8903,-94.0367,1021.58,11111222 
TABS,ioos:station:wmo:42046:1,2002-10-13T16:09:00Z,27.8903,-94.0367,1023.1,11111222 
TABS,ioos:station:wmo:42046:1,2002-10-13T17:39:00Z,27.8903,-94.0367,1022.53,11111222 
TABS,ioos:station:wmo:42046:1,2002-10-13T20:39:00Z,27.8903,-94.0367,1020.82,11111222 
TABS,ioos:station:wmo:42046:1,2002-10-13T21:09:00Z,27.8903,-94.0367,1020.95,11111222 
TABS,ioos:station:wmo:42046:1,2002-10-13T21:39:00Z,27.8903,-94.0367,1020.95,11111222 
TABS,ioos:station:wmo:42046:1,2002-10-13T23:09:00Z,27.8903,-94.0367,1021.64,11111222 
TABS,ioos:station:wmo:42046:1,2002-10-14T00:39:00Z,27.8903,-94.0367,1021.83,11111222 
TABS,ioos:station:wmo:42046:1,2002-10-14T02:09:00Z,27.8903,-94.0367,1021.96,11111222 
TABS,ioos:station:wmo:42046:1,2002-10-14T04:39:00Z,27.8903,-94.0367,1021.64,11111222 
TABS,ioos:station:wmo:42046:1,2002-10-14T06:39:00Z,27.8903,-94.0367,1021.14,11111222 
TABS,ioos:station:wmo:42046:1,2002-10-14T07:09:00Z,27.8903,-94.0367,1020.75,11111222 
TABS,ioos:station:wmo:42046:1,2002-10-14T09:39:00Z,27.8903,-94.0367,1019.17,11111222 
TABS,ioos:station:wmo:42046:1,2002-10-14T17:09:00Z,27.8903,-94.0367,1019.17,11111222 
TABS,ioos:station:wmo:42046:1,2002-10-14T19:39:00Z,27.8903,-94.0367,1016.82,11111222 
TABS,ioos:station:wmo:42046:1,2002-10-14T20:39:00Z,27.8903,-94.0367,1016.37,11111222 
TABS,ioos:station:wmo:42046:1,2002-10-14T21:39:00Z,27.8903,-94.0367,1015.74,11111222 
TABS,ioos:station:wmo:42046:1,2002-10-14T22:39:00Z,27.8903,-94.0367,1015.68,11111222 
TABS,ioos:station:wmo:42046:1,2002-10-15T00:09:00Z,27.8903,-94.0367,1015.55,11111222 
TABS,ioos:station:wmo:42046:1,2002-10-15T01:09:00Z,27.8903,-94.0367,1016.18,11111222 
TABS,ioos:station:wmo:42046:1,2002-10-15T02:39:00Z,27.8903,-94.0367,1016.12,11111222 
TABS,ioos:station:wmo:42046:1,2002-10-15T03:39:00Z,27.8903,-94.0367,1015.99,11111222 
TABS,ioos:station:wmo:42046:1,2002-10-15T05:09:00Z,27.8903,-94.0367,1015.74,11111222 
TABS,ioos:station:wmo:42046:1,2002-10-15T07:09:00Z,27.8903,-94.0367,1015.23,11111222 
TABS,ioos:station:wmo:42046:1,2002-10-15T08:09:00Z,27.8903,-94.0367,1014.41,11111222 
TABS,ioos:station:wmo:42046:1,2002-10-15T10:09:00Z,27.8903,-94.0367,1013.96,11111222 
TABS,ioos:station:wmo:42046:1,2002-10-15T10:39:00Z,27.8903,-94.0367,1014.03,11111222 
TABS,ioos:station:wmo:42046:1,2002-10-15T16:09:00Z,27.8903,-94.0367,1016.06,11111222 
TABS,ioos:station:wmo:42046:1,2002-10-15T18:09:00Z,27.8903,-94.0367,1015.11,11111222 
TABS,ioos:station:wmo:42046:1,2002-10-15T20:09:00Z,27.8903,-94.0367,1013.58,11111222 
TABS,ioos:station:wmo:42046:1,2002-10-15T22:09:00Z,27.8903,-94.0367,1013.33,11111222 
TABS,ioos:station:wmo:42046:1,2002-10-15T23:39:00Z,27.8903,-94.0367,1013.77,11111222 
TABS,ioos:station:wmo:42046:1,2002-10-16T04:39:00Z,27.8903,-94.0367,1015.61,11111222 
TABS,ioos:station:wmo:42046:1,2002-10-16T07:39:00Z,27.8903,-94.0367,1015.3,11111222 
TABS,ioos:station:wmo:42046:1,2002-10-16T10:09:00Z,27.8903,-94.0367,1015.68,11111222 
TABS,ioos:station:wmo:42046:1,2002-10-16T10:39:00Z,27.8903,-94.0367,1015.93,11111222 
TABS,ioos:station:wmo:42046:1,2002-10-16T11:09:00Z,27.8903,-94.0367,1016.06,11111222 
TABS,ioos:station:wmo:42046:1,2002-10-16T12:09:00Z,27.8903,-94.0367,1016.25,11111222 
TABS,ioos:station:wmo:42046:1,2002-10-16T12:39:00Z,27.8903,-94.0367,1016.31,11111222 
TABS,ioos:station:wmo:42046:1,2002-10-16T13:09:00Z,27.8903,-94.0367,1016.63,11111222 
TABS,ioos:station:wmo:42046:1,2002-10-16T15:09:00Z,27.8903,-94.0367,1017.77,11111222 
TABS,ioos:station:wmo:42046:1,2002-10-16T16:39:00Z,27.8903,-94.0367,1017.58,11111222 
TABS,ioos:station:wmo:42046:1,2002-10-16T17:39:00Z,27.8903,-94.0367,1017.01,11111222 
TABS,ioos:station:wmo:42046:1,2002-10-16T18:39:00Z,27.8903,-94.0367,1016.37,11111222 
TABS,ioos:station:wmo:42046:1,2002-10-16T19:09:00Z,27.8903,-94.0367,1015.99,11111222 
TABS,ioos:station:wmo:42046:1,2002-10-17T01:09:00Z,27.8903,-94.0367,1015.87,11111222 
TABS,ioos:station:wmo:42046:1,2002-10-17T01:39:00Z,27.8903,-94.0367,1016.12,11111222 
TABS,ioos:station:wmo:42046:1,2002-10-17T02:39:00Z,27.8903,-94.0367,1016.31,11111222 
TABS,ioos:station:wmo:42046:1,2002-10-17T05:09:00Z,27.8903,-94.0367,1016.82,11111222 
TABS,ioos:station:wmo:42046:1,2002-10-17T05:39:00Z,27.8903,-94.0367,1016.76,11111222 
TABS,ioos:station:wmo:42046:1,2002-10-17T09:09:00Z,27.8903,-94.0367,1016.44,11111222 
TABS,ioos:station:wmo:42046:1,2002-10-17T11:09:00Z,27.8903,-94.0367,1017.45,11111222 
TABS,ioos:station:wmo:42046:1,2002-10-17T11:39:00Z,27.8903,-94.0367,1017.71,11111222 
TABS,ioos:station:wmo:42046:1,2002-10-17T13:39:00Z,27.8903,-94.0367,1019.29,11111222 
TABS,ioos:station:wmo:42046:1,2002-10-17T14:09:00Z,27.8903,-94.0367,1019.49,11111222 
TABS,ioos:station:wmo:42046:1,2002-10-17T14:39:00Z,27.8903,-94.0367,1020.12,11111222 